| time (UTC) | temp C | wind direction | speed KPH | gust KPH | rain 1hr cm | rain 24hr cm | rain mn cm | humidity % | barometer mb |
| 20260905145656 | 20 | 245 | 1.6 | 20.9 | 0.00 | 0.00 | 0.00 | 19 | 1016.2 |
| 20260905144702 | 20 | 218 | 8.0 | 16.1 | 0.00 | 0.00 | 0.00 | 18 | 1016.2 |
| 20260905143752 | 20 | 195 | 9.7 | 24.1 | 0.00 | 0.00 | 0.00 | 19 | 1016.1 |
| 20260905143708 | 20 | 195 | 9.7 | 24.1 | 0.00 | 0.00 | 0.00 | 19 | 1016.1 |
| 20260905142217 | 19 | 197 | 6.4 | 25.7 | 0.00 | 0.00 | 0.00 | 20 | 1016.0 |
| 20260905141223 | 18 | 318 | 4.8 | 16.1 | 0.00 | 0.00 | 0.00 | 22 | 1015.8 |
| 20260905140229 | 18 | 223 | 6.4 | 19.3 | 0.00 | 0.00 | 0.00 | 23 | 1015.8 |
| 20260905134738 | 17 | 267 | 6.4 | 16.1 | 0.00 | 0.00 | 0.00 | 24 | 1015.4 |
| 20260905134241 | 17 | 277 | 4.8 | 14.5 | 0.00 | 0.00 | 0.00 | 25 | 1015.4 |
| 20260905133744 | 17 | 218 | 4.8 | 19.3 | 0.00 | 0.00 | 0.00 | 25 | 1015.4 |
| 20260905133247 | 17 | 273 | 6.4 | 19.3 | 0.00 | 0.00 | 0.00 | 26 | 1015.1 |
| 20260905132750 | 17 | 252 | 6.4 | 17.7 | 0.00 | 0.00 | 0.00 | 26 | 1015.2 |
| 20260905132253 | 17 | 259 | 9.7 | 17.7 | 0.00 | 0.00 | 0.00 | 26 | 1015.2 |
| 20260905131756 | 17 | 271 | 6.4 | 16.1 | 0.00 | 0.00 | 0.00 | 26 | 1015.1 |
| 20260905131259 | 17 | 264 | 8.0 | 16.1 | 0.00 | 0.00 | 0.00 | 26 | 1015.0 |
| 20260905130802 | 17 | 262 | 6.4 | 19.3 | 0.00 | 0.00 | 0.00 | 26 | 1015.0 |
| 20260905130305 | 17 | 246 | 4.8 | 19.3 | 0.00 | 0.00 | 0.00 | 27 | 1015.0 |
| 20260905125808 | 17 | 237 | 6.4 | 16.1 | 0.00 | 0.00 | 0.00 | 27 | 1015.0 |
| 20260905125311 | 17 | 266 | 6.4 | 17.7 | 0.00 | 0.00 | 0.00 | 26 | 1014.9 |
| 20260905123323 | 17 | 235 | 8.0 | 19.3 | 0.00 | 0.00 | 0.00 | 25 | 1014.9 |
| 20260905122826 | 17 | 212 | 9.7 | 19.3 | 0.00 | 0.00 | 0.00 | 26 | 1014.8 |
| 20260905121832 | 17 | 246 | 8.0 | 17.7 | 0.00 | 0.00 | 0.00 | 25 | 1014.8 |
| 20260905121335 | 17 | 270 | 9.7 | 17.7 | 0.00 | 0.00 | 0.00 | 25 | 1014.9 |
| 20260905120838 | 17 | 270 | 9.7 | 16.1 | 0.00 | 0.00 | 0.00 | 25 | 1014.9 |
| 20260905120341 | 17 | 274 | 6.4 | 14.5 | 0.00 | 0.00 | 0.00 | 25 | 1014.9 |
| 20260905115845 | 17 | 261 | 6.4 | 22.5 | 0.00 | 0.00 | 0.00 | 1014.9 | |
| 20260905115347 | 17 | 260 | 9.7 | 22.5 | 0.00 | 0.00 | 0.00 | 24 | 1014.9 |
| 20260905113856 | 17 | 279 | 11.3 | 22.5 | 0.00 | 0.00 | 0.00 | 24 | 1014.9 |
| 20260905113359 | 17 | 279 | 11.3 | 22.5 | 0.00 | 0.00 | 0.00 | 24 | 1014.8 |
| 20260905112902 | 17 | 280 | 11.3 | 16.1 | 0.00 | 0.00 | 0.00 | 23 | 1014.8 |
| 20260905112405 | 17 | 281 | 9.7 | 16.1 | 0.00 | 0.00 | 0.00 | 23 | 1014.8 |
| 20260905111411 | 17 | 262 | 4.8 | 16.1 | 0.00 | 0.00 | 0.00 | 23 | 1014.8 |
| 20260905110914 | 16 | 285 | 8.0 | 16.1 | 0.00 | 0.00 | 0.00 | 23 | 1014.9 |
| 20260905110417 | 16 | 271 | 6.4 | 16.1 | 0.00 | 0.00 | 0.00 | 23 | 1015.1 |
| 20260905105920 | 16 | 278 | 6.4 | 14.5 | 0.00 | 0.00 | 0.00 | 23 | 1015.1 |
| 20260905105423 | 16 | 267 | 6.4 | 14.5 | 0.00 | 0.00 | 0.00 | 22 | 1015.1 |
| 20260905104926 | 16 | 298 | 6.4 | 12.9 | 0.00 | 0.00 | 0.00 | 22 | 1015.1 |
| 20260905104429 | 16 | 307 | 4.8 | 8.0 | 0.00 | 0.00 | 0.00 | 22 | 1015.0 |
| 20260905103932 | 16 | 323 | 1.6 | 8.0 | 0.00 | 0.00 | 0.00 | 22 | 1015.0 |
| 20260905102939 | 16 | 263 | 3.2 | 8.0 | 0.00 | 0.00 | 0.00 | 21 | 1015.0 |
| 20260905101944 | 16 | 283 | 3.2 | 12.9 | 0.00 | 0.00 | 0.00 | 21 | 1015.0 |
| 20260905101447 | 16 | 284 | 4.8 | 14.5 | 0.00 | 0.00 | 0.00 | 21 | 1014.9 |
| 20260905100950 | 16 | 246 | 6.4 | 14.5 | 0.00 | 0.00 | 0.00 | 21 | 1015.1 |
| 20260905095957 | 16 | 322 | 3.2 | 12.9 | 0.00 | 0.00 | 0.00 | 21 | 1015.1 |
| 20260905095459 | 16 | 294 | 3.2 | 12.9 | 0.00 | 0.00 | 0.00 | 22 | 1015.1 |
| 20260905095003 | 16 | 162 | 4.8 | 11.3 | 0.00 | 0.00 | 0.00 | 22 | 1015.2 |
| 20260905093511 | 16 | 290 | 4.8 | 12.9 | 0.00 | 0.00 | 0.00 | 25 | 1015.3 |
| 20260905093014 | 16 | 260 | 3.2 | 12.9 | 0.00 | 0.00 | 0.00 | 26 | 1015.3 |
| 20260905092517 | 16 | 276 | 4.8 | 11.3 | 0.00 | 0.00 | 0.00 | 27 | 1015.3 |
| 20260905091523 | 16 | 282 | 1.6 | 9.7 | 0.00 | 0.00 | 0.00 | 32 | 1015.2 |
| 20260905091026 | 16 | 284 | 3.2 | 9.7 | 0.00 | 0.00 | 0.00 | 33 | 1015.3 |
| 20260905090529 | 16 | 263 | 1.6 | 11.3 | 0.00 | 0.00 | 0.00 | 33 | 1015.3 |
| 20260905090032 | 16 | 261 | 4.8 | 14.5 | 0.00 | 0.00 | 0.00 | 34 | 1015.3 |
| 20260905085038 | 15 | 279 | 6.4 | 12.9 | 0.00 | 0.00 | 0.00 | 36 | 1015.3 |
| 20260905084541 | 15 | 290 | 8.0 | 12.9 | 0.00 | 0.00 | 0.00 | 37 | 1015.4 |
| 20260905084044 | 15 | 295 | 8.0 | 11.3 | 0.00 | 0.00 | 0.00 | 39 | 1015.3 |
| 20260905082553 | 16 | 288 | 9.7 | 17.7 | 0.00 | 0.00 | 0.00 | 40 | 1015.5 |
| 20260905081102 | 16 | 300 | 9.7 | 17.7 | 0.00 | 0.00 | 0.00 | 41 | 1015.5 |
| 20260905080605 | 16 | 288 | 11.3 | 20.9 | 0.00 | 0.00 | 0.00 | 41 | 1015.6 |
| 20260905075114 | 16 | 289 | 8.0 | 22.5 | 0.00 | 0.00 | 0.00 | 41 | 1015.5 |
| 20260905074617 | 16 | 290 | 12.9 | 25.7 | 0.00 | 0.00 | 0.00 | 41 | 1015.6 |
| 20260905074120 | 16 | 283 | 12.9 | 27.4 | 0.00 | 0.00 | 0.00 | 41 | 1015.5 |
| 20260905073623 | 16 | 283 | 14.5 | 27.4 | 0.00 | 0.00 | 0.00 | 41 | 1015.5 |
| 20260905073126 | 16 | 289 | 11.3 | 25.7 | 0.00 | 0.00 | 0.00 | 42 | 1015.5 |
| 20260905072629 | 16 | 286 | 12.9 | 25.7 | 0.00 | 0.00 | 0.00 | 42 | 1015.4 |
| 20260905072213 | 16 | 283 | 16.1 | 27.4 | 0.00 | 0.00 | 0.00 | 42 | 1015.5 |
| 20260905072132 | 16 | 283 | 16.1 | 27.4 | 0.00 | 0.00 | 0.00 | 42 | 1015.5 |
| 20260905071138 | 16 | 283 | 17.7 | 30.6 | 0.00 | 0.00 | 0.00 | 42 | 1015.4 |
| 20260905070641 | 16 | 284 | 17.7 | 30.6 | 0.00 | 0.00 | 0.00 | 43 | 1015.3 |
| 20260905065151 | 16 | 284 | 20.9 | 33.8 | 0.00 | 0.00 | 0.00 | 42 | 1015.1 |
| 20260905064156 | 16 | 286 | 19.3 | 27.4 | 0.00 | 0.00 | 0.00 | 43 | 1015.1 |
| 20260905063659 | 16 | 285 | 17.7 | 29.0 | 0.00 | 0.00 | 0.00 | 43 | 1015.1 |
| 20260905063202 | 16 | 282 | 17.7 | 29.0 | 0.00 | 0.00 | 0.00 | 43 | 1015.0 |
| 20260905061711 | 16 | 278 | 16.1 | 27.4 | 0.00 | 0.00 | 0.00 | 45 | 1015.1 |
| 20260905060718 | 16 | 281 | 16.1 | 22.5 | 0.00 | 0.00 | 0.00 | 47 | 1015.0 |
| 20260905060220 | 16 | 281 | 16.1 | 22.5 | 0.00 | 0.00 | 0.00 | 47 | 1015.1 |
| 20260905055723 | 16 | 279 | 14.5 | 22.5 | 0.00 | 0.00 | 0.00 | 48 | 1015.1 |
| 20260905055226 | 16 | 281 | 16.1 | 22.5 | 0.00 | 0.00 | 0.00 | 48 | 1015.1 |
| 20260905054730 | 16 | 278 | 14.5 | 20.9 | 0.00 | 0.00 | 0.00 | 49 | 1015.1 |
| 20260905054232 | 16 | 280 | 14.5 | 22.5 | 0.00 | 0.00 | 0.00 | 50 | 1015.1 |
| 20260905052741 | 16 | 285 | 14.5 | 20.9 | 0.00 | 0.00 | 0.00 | 52 | 1015.1 |
| 20260905052244 | 16 | 283 | 14.5 | 17.7 | 0.00 | 0.00 | 0.00 | 53 | 1015.2 |
| 20260905051747 | 16 | 285 | 11.3 | 19.3 | 0.00 | 0.00 | 0.00 | 54 | 1015.2 |
| 20260905051250 | 16 | 282 | 12.9 | 19.3 | 0.00 | 0.00 | 0.00 | 54 | 1015.2 |
| 20260905050753 | 16 | 283 | 12.9 | 19.3 | 0.00 | 0.00 | 0.00 | 54 | 1015.0 |
| 20260905050256 | 16 | 282 | 12.9 | 20.9 | 0.00 | 0.00 | 0.00 | 55 | 1015.0 |
| 20260905045759 | 16 | 283 | 12.9 | 20.9 | 0.00 | 0.00 | 0.00 | 55 | 1015.0 |
| 20260905045305 | 16 | 278 | 12.9 | 20.9 | 0.00 | 0.00 | 0.00 | 55 | 1014.9 |
| 20260905044805 | 16 | 280 | 14.5 | 20.9 | 0.00 | 0.00 | 0.00 | 56 | 1015.0 |
| 20260905044308 | 16 | 287 | 14.5 | 20.9 | 0.00 | 0.00 | 0.00 | 56 | 1014.8 |
| 20260905043811 | 16 | 282 | 14.5 | 20.9 | 0.00 | 0.00 | 0.00 | 58 | 1014.7 |
| 20260905043314 | 16 | 285 | 12.9 | 19.3 | 0.00 | 0.00 | 0.00 | 59 | 1014.7 |
| 20260905042818 | 16 | 285 | 12.9 | 19.3 | 0.00 | 0.00 | 0.00 | 61 | 1014.7 |
| 20260905042320 | 15 | 294 | 12.9 | 19.3 | 0.00 | 0.00 | 0.00 | 63 | 1014.6 |
| 20260905041823 | 15 | 281 | 11.3 | 17.7 | 0.00 | 0.00 | 0.00 | 63 | 1014.7 |
| 20260905041326 | 15 | 284 | 9.7 | 17.7 | 0.00 | 0.00 | 0.00 | 62 | 1014.7 |
| 20260905040333 | 16 | 285 | 12.9 | 20.9 | 0.00 | 0.00 | 0.00 | 62 | 1014.6 |
| 20260905035836 | 16 | 288 | 14.5 | 20.9 | 0.00 | 0.00 | 0.00 | 61 | 1014.5 |
| 20260905035339 | 16 | 283 | 12.9 | 19.3 | 0.00 | 0.00 | 0.00 | 60 | 1014.4 |
| 20260905034344 | 16 | 272 | 11.3 | 19.3 | 0.00 | 0.00 | 0.00 | 57 | 1014.4 |
| 20260905033847 | 16 | 268 | 12.9 | 20.9 | 0.00 | 0.00 | 0.00 | 56 | 1014.5 |
| 20260905032854 | 16 | 270 | 14.5 | 22.5 | 0.00 | 0.00 | 0.00 | 55 | 1014.3 |
| 20260905032356 | 16 | 273 | 12.9 | 22.5 | 0.00 | 0.00 | 0.00 | 55 | 1014.2 |
| 20260905031859 | 16 | 272 | 14.5 | 22.5 | 0.00 | 0.00 | 0.00 | 55 | 1014.2 |
| 20260905031403 | 16 | 278 | 16.1 | 24.1 | 0.00 | 0.00 | 0.00 | 55 | 1014.2 |
| 20260905030409 | 16 | 276 | 16.1 | 22.5 | 0.00 | 0.00 | 0.00 | 54 | 1014.1 |
| 20260905025415 | 16 | 272 | 16.1 | 22.5 | 0.00 | 0.00 | 0.00 | 52 | 1014.0 |
| 20260905024421 | 16 | 269 | 12.9 | 20.9 | 0.00 | 0.00 | 0.00 | 50 | 1014.0 |
| 20260905023924 | 17 | 269 | 16.1 | 22.5 | 0.00 | 0.00 | 0.00 | 50 | 1014.1 |
| 20260905023427 | 17 | 266 | 11.3 | 22.5 | 0.00 | 0.00 | 0.00 | 51 | 1014.1 |
| 20260905022930 | 17 | 271 | 12.9 | 20.9 | 0.00 | 0.00 | 0.00 | 52 | 1014.1 |
| 20260905022433 | 17 | 268 | 11.3 | 24.1 | 0.00 | 0.00 | 0.00 | 51 | 1014.0 |
| 20260905021936 | 17 | 274 | 11.3 | 24.1 | 0.00 | 0.00 | 0.00 | 51 | 1014.0 |
| 20260905021440 | 17 | 270 | 12.9 | 22.5 | 0.00 | 0.00 | 0.00 | 51 | 1014.0 |
| 20260905020941 | 18 | 279 | 14.5 | 22.5 | 0.00 | 0.00 | 0.00 | 51 | 1013.9 |
| 20260905015450 | 18 | 288 | 19.3 | 25.7 | 0.00 | 0.00 | 0.00 | 48 | 1013.8 |
| 20260905014457 | 20 | 277 | 11.3 | 22.5 | 0.00 | 0.00 | 0.00 | 47 | 1014.0 |
| 20260905013959 | 20 | 277 | 16.1 | 22.5 | 0.00 | 0.00 | 0.00 | 47 | 1013.9 |
| 20260905012509 | 20 | 281 | 14.5 | 25.7 | 0.00 | 0.00 | 0.00 | 46 | 1013.9 |
| 20260905012011 | 21 | 255 | 14.5 | 29.0 | 0.00 | 0.00 | 0.00 | 46 | 1013.9 |
| 20260905011017 | 21 | 278 | 12.9 | 30.6 | 0.00 | 0.00 | 0.00 | 46 | 1013.9 |
| 20260905010521 | 21 | 264 | 17.7 | 30.6 | 0.00 | 0.00 | 0.00 | 45 | 1013.8 |
| 20260905010023 | 21 | 270 | 14.5 | 30.6 | 0.00 | 0.00 | 0.00 | 45 | 1013.7 |
| 20260905005030 | 21 | 251 | 24.1 | 37.0 | 0.00 | 0.00 | 0.00 | 44 | 1013.9 |
| 20260905004533 | 21 | 255 | 19.3 | 37.0 | 0.00 | 0.00 | 0.00 | 45 | 1013.9 |
| 20260905002545 | 22 | 263 | 19.3 | 38.6 | 0.00 | 0.00 | 0.00 | 43 | 1013.6 |
| 20260905001054 | 22 | 258 | 22.5 | 38.6 | 0.00 | 0.00 | 0.00 | 44 | 1013.8 |
| 20260905000557 | 22 | 269 | 17.7 | 40.2 | 0.00 | 0.00 | 0.00 | 44 | 1013.8 |
| 20260904235603 | 22 | 249 | 27.4 | 37.0 | 0.00 | 0.00 | 0.00 | 43 | 1013.9 |
| 20260904231627 | 22 | 259 | 17.7 | 38.6 | 0.00 | 0.00 | 0.00 | 43 | 1014.0 |
| 20260904230633 | 24 | 267 | 22.5 | 35.4 | 0.00 | 0.00 | 0.00 | 39 | 1014.3 |
| 20260904225639 | 25 | 257 | 16.1 | 33.8 | 0.00 | 0.00 | 0.00 | 38 | 1014.2 |
| 20260904225142 | 25 | 260 | 16.1 | 33.8 | 0.00 | 0.00 | 0.00 | ||
| 20260904224645 | 25 | 264 | 14.5 | 37.0 | 0.00 | 0.00 | 0.00 | 36 | 1014.2 |
| 20260904223651 | 25 | 254 | 22.5 | 33.8 | 0.00 | 0.00 | 0.00 | 35 | 1014.4 |
| 20260904223154 | 25 | 261 | 16.1 | 33.8 | 0.00 | 0.00 | 0.00 | 35 | 1014.3 |
| 20260904222200 | 25 | 270 | 22.5 | 35.4 | 0.00 | 0.00 | 0.00 | 33 | 1014.5 |
| 20260904220709 | 25 | 261 | 20.9 | 30.6 | 0.00 | 0.00 | 0.00 | 32 | 1014.8 |
| 20260904220212 | 25 | 214 | 19.3 | 30.6 | 0.00 | 0.00 | 0.00 | 32 | 1014.9 |
| 20260904215218 | 25 | 262 | 19.3 | 32.2 | 0.00 | 0.00 | 0.00 | 31 | 1015.0 |
| 20260904214223 | 25 | 256 | 19.3 | 35.4 | 0.00 | 0.00 | 0.00 | 30 | 1015.1 |
| 20260904213726 | 25 | 226 | 17.7 | 35.4 | 0.00 | 0.00 | 0.00 | 31 | 1015.2 |
| 20260904213230 | 25 | 243 | 14.5 | 25.7 | 0.00 | 0.00 | 0.00 | 28 | 1015.4 |
| 20260904212733 | 25 | 263 | 16.1 | 29.0 | 0.00 | 0.00 | 0.00 | 30 | 1015.3 |
| 20260904211739 | 25 | 253 | 19.3 | 35.4 | 0.00 | 0.00 | 0.00 | 29 | 1015.3 |
| 20260904211242 | 25 | 266 | 20.9 | 32.2 | 0.00 | 0.00 | 0.00 | 29 | 1015.2 |
| 20260904210745 | 25 | 252 | 12.9 | 40.2 | 0.00 | 0.00 | 0.00 | 30 | 1015.2 |
| 20260904210248 | 25 | 248 | 16.1 | 40.2 | 0.00 | 0.00 | 0.00 | 30 | 1015.2 |
| 20260904205751 | 25 | 224 | 20.9 | 35.4 | 0.00 | 0.00 | 0.00 | 29 | 1015.2 |
| 20260904203803 | 25 | 231 | 14.5 | 33.8 | 0.00 | 0.00 | 0.00 | 27 | 1015.3 |
| 20260904203307 | 25 | 232 | 22.5 | 32.2 | 0.00 | 0.00 | 0.00 | 27 | 1014.4 |
| 20260904202809 | 25 | 260 | 20.9 | 30.6 | 0.00 | 0.00 | 0.00 | 26 | 1014.4 |
| 20260904202312 | 25 | 243 | 14.5 | 27.4 | 0.00 | 0.00 | 0.00 | 26 | 1014.4 |
| 20260904200324 | 24 | 273 | 20.9 | 32.2 | 0.00 | 0.00 | 0.00 | 25 | 1014.6 |
| 20260904195827 | 24 | 276 | 17.7 | 29.0 | 0.00 | 0.00 | 0.00 | 25 | 1014.6 |
| 20260904195330 | 24 | 238 | 14.5 | 32.2 | 0.00 | 0.00 | 0.00 | 25 | 1014.7 |
| 20260904193839 | 25 | 274 | 19.3 | 30.6 | 0.00 | 0.00 | 0.00 | 25 | 1014.7 |
| 20260904193342 | 25 | 247 | 17.7 | 32.2 | 0.00 | 0.00 | 0.00 | 26 | 1014.7 |
| 20260904192845 | 25 | 233 | 19.3 | 33.8 | 0.00 | 0.00 | 0.00 | 25 | 1014.7 |
| 20260904191851 | 24 | 278 | 19.3 | 37.0 | 0.00 | 0.00 | 0.00 | 27 | 1014.7 |
| 20260904185903 | 23 | 277 | 17.7 | 30.6 | 0.00 | 0.00 | 0.00 | 28 | 1015.0 |
| 20260904182424 | 23 | 257 | 16.1 | 25.7 | 0.00 | 0.00 | 0.00 | 28 | 1015.0 |
| 20260904173951 | 22 | 237 | 9.7 | 30.6 | 0.00 | 0.00 | 0.00 | 29 | 1015.1 |
| 20260904173454 | 21 | 270 | 19.3 | 30.6 | 0.00 | 0.00 | 0.00 | 29 | 1015.0 |
| 20260904172500 | 21 | 262 | 12.9 | 30.6 | 0.00 | 0.00 | 0.00 | 27 | 1015.1 |
| 20260904165518 | 21 | 245 | 14.5 | 29.0 | 0.00 | 0.00 | 0.00 | 24 | 1014.9 |
| 20260904165021 | 20 | 266 | 17.7 | 29.0 | 0.00 | 0.00 | 0.00 | 21 | 1014.8 |
| 20260904164027 | 20 | 271 | 19.3 | 29.0 | 0.00 | 0.00 | 0.00 | 21 | 1014.7 |
| 20260904163033 | 20 | 274 | 14.5 | 25.7 | 0.00 | 0.00 | 0.00 | 18 | 1014.6 |
| 20260904161542 | 19 | 270 | 19.3 | 27.4 | 0.00 | 0.00 | 0.00 | 14 | 1014.4 |
| 20260904161045 | 19 | 275 | 19.3 | 27.4 | 0.00 | 0.00 | 0.00 | 14 | 1014.2 |
| 20260904160548 | 19 | 278 | 20.9 | 27.4 | 0.00 | 0.00 | 0.00 | 13 | 1014.3 |
| 20260904155057 | 18 | 260 | 14.5 | 27.4 | 0.00 | 0.00 | 0.00 | 15 | 1014.1 |
| 20260904153109 | 17 | 251 | 14.5 | 24.1 | 0.00 | 0.00 | 0.00 | 15 | 1013.9 |
| 20260904152115 | 17 | 262 | 17.7 | 24.1 | 0.00 | 0.00 | 0.00 | 15 | 1013.7 |
| 20260904151618 | 17 | 247 | 14.5 | 22.5 | 0.00 | 0.00 | 0.00 | 16 | 1013.8 |
| 20260904150624 | 17 | 251 | 14.5 | 22.5 | 0.00 | 0.00 | 0.00 | 18 | 1013.7 |